Location: Unspecified
(58.9933°N, 5.6375°E)
Time: 15:19:05
(UTC+01:00)

Okean 3 - Visible Passes

Search period start: 07 December 2016 00:00
Search period end: 17 December 2016 00:00
Orbit: 577 x 603 km, 82.5° (Epoch: 07 December)

Date Brightness Start Highest point End Pass type
(mag) Time Alt. Az. Time Alt. Az. Time Alt. Az.
07 Dec 4.5 16:32:52 10° SSE 16:36:31 28° E 16:40:08 10° NNE visible
07 Dec 4.3 18:09:26 10° SSW 18:13:36 50° WNW 18:17:46 10° N visible
07 Dec 6.4 19:50:16 10° WNW 19:51:56 12° NW 19:53:37 10° NNW visible
08 Dec 4.1 16:40:51 10° SSE 16:44:46 36° E 16:48:42 10° NNE visible
08 Dec 4.8 18:18:03 10° SW 18:22:04 38° WNW 18:26:04 10° N visible
09 Dec 3.8 16:48:57 10° S 16:53:04 49° E 16:57:11 10° NNE visible
09 Dec 5.3 18:26:48 10° SW 18:30:34 30° WNW 18:34:20 10° N visible
10 Dec 3.5 16:57:10 10° S 17:01:24 67° E 17:05:38 10° NNE visible
10 Dec 5.7 18:35:40 10° WSW 18:39:06 23° WNW 18:42:33 10° N visible
11 Dec 3.5 17:05:30 10° SSW 17:09:46 89° ESE 17:14:02 10° NNE visible
11 Dec 6.0 18:44:39 10° W 18:47:40 19° NW 18:50:42 10° N visible
12 Dec 3.8 17:13:55 10° SSW 17:18:10 68° WNW 17:22:24 10° N visible
12 Dec 6.2 18:53:49 10° W 18:56:17 15° NW 18:58:45 10° NNW visible
13 Dec 4.3 17:22:26 10° SSW 17:26:36 51° WNW 17:30:44 10° N visible
13 Dec 6.3 19:03:16 10° WNW 19:04:56 12° NW 19:06:35 10° NNW visible
14 Dec 4.8 17:31:04 10° SW 17:35:03 38° WNW 17:39:02 10° N visible
15 Dec 5.2 17:39:48 10° SW 17:43:33 30° WNW 17:47:18 10° N visible
16 Dec 5.6 17:48:39 10° WSW 17:52:05 23° WNW 17:55:31 10° N visible
